Weather History for Albuquerque Double Eagle, NM

Change the Weather History Date:

Friday, December 7, 2012

  Actual Average Record
Temperature  
Mean Temperature 42 °F -  
Max Temperature 57 °F - - ()
Min Temperature 28 °F - - ()
Degree Days  
Heating Degree Days 22    
Moisture  
Dew Point 21 °F    
Average Humidity 47    
Maximum Humidity 70    
Minimum Humidity 29    
Precipitation  
Precipitation 0.00 in - - ()
Sea Level Pressure  
Sea Level Pressure 29.96 in    
Wind  
Wind Speed 4 mph (NW)    
Max Wind Speed 14 mph    
Max Gust Speed -    
Visibility 10 miles    
Events      
T = Trace of Precipitation, MM = Missing Value Source: NWS Daily Summary

Daily Weather History Graph

Daily Weather History Graph

Search for Another Location

Airport:

Trip Planner

Search our weather history database for the weather conditions in past years. The results will help you decide how hot, cold, wet, or windy it might be!

Date:

Astronomy

Dec. 07, 2012 Rise Set
Actual Time 7:02 AM MST 4:55 PM MST
Civil Twilight 6:34 AM MST 5:23 PM MST
Nautical Twilight 6:03 AM MST 5:54 PM MST
Astronomical Twilight 5:32 AM MST 6:25 PM MST
Moon 12:37 AM MST (12/7) 12:42 PM MST (12/7)
Length of Visible Light 10h 48m
Length of Day
9h 52m
Last Quarter, 38% of the Moon is Illuminated
Dec 7
Last Quarter
Dec 13
New
Dec 19
First Quarter
Dec 28
Full
Jan 4
Last Quarter

Hourly Weather History & Observations

Time (MST) Temp. Windchill Dew Point Humidity Pressure Visibility Wind Dir Wind Speed Gust Speed Precip Events Conditions
12:15 AM 41.0 °F - 19.4 °F 42% 29.96 in 10.0 mi Calm Calm - N/A   Mostly Cloudy
12:35 AM 44.6 °F - 21.2 °F 39% 29.96 in 10.0 mi Calm Calm - N/A   Mostly Cloudy
12:55 AM 41.0 °F 37.1 °F 19.4 °F 42% 29.95 in 10.0 mi NW 5.8 mph - N/A   Mostly Cloudy
1:15 AM 41.0 °F 35.8 °F 19.4 °F 42% 29.95 in 10.0 mi WNW 8.1 mph - N/A   Mostly Cloudy
1:35 AM 39.2 °F 33.0 °F 19.4 °F 45% 29.95 in 10.0 mi NW 9.2 mph - N/A   Partly Cloudy
1:55 AM 37.4 °F 32.1 °F 19.4 °F 48% 29.96 in 10.0 mi WNW 6.9 mph - N/A   Clear
2:15 AM 37.4 °F 32.8 °F 19.4 °F 48% 29.96 in 10.0 mi North 5.8 mph - N/A   Clear
2:35 AM 37.4 °F 34.9 °F 19.4 °F 48% 29.97 in 10.0 mi North 3.5 mph - N/A   Clear
2:55 AM 37.4 °F 32.8 °F 19.4 °F 48% 29.96 in 10.0 mi North 5.8 mph - N/A   Partly Cloudy
3:15 AM 33.8 °F - 17.6 °F 52% 29.96 in 10.0 mi Calm Calm - N/A   Partly Cloudy
3:35 AM 35.6 °F - 17.6 °F 48% 29.96 in 10.0 mi Calm Calm - N/A   Clear
3:55 AM 32.0 °F - 15.8 °F 51% 29.95 in 10.0 mi Calm Calm - N/A   Clear
4:15 AM 32.0 °F - 17.6 °F 55% 29.95 in 10.0 mi Calm Calm - N/A   Clear
4:35 AM 32.0 °F 25.6 °F 17.6 °F 55% 29.95 in 10.0 mi WNW 6.9 mph - N/A   Clear
5:50 AM 33.8 °F - 19.4 °F 56% 29.96 in 10.0 mi Calm Calm - N/A   Clear
6:50 AM 28.4 °F - 15.8 °F 59% 29.98 in 10.0 mi Calm Calm - N/A   Clear
7:50 AM 32.0 °F - 17.6 °F 55% 29.99 in 10.0 mi Calm Calm - N/A   Partly Cloudy
8:50 AM 41.0 °F - 19.4 °F 42% 30.00 in 10.0 mi Calm Calm - N/A   Partly Cloudy
9:50 AM 48.2 °F - 23.0 °F 37% 30.00 in 10.0 mi Calm Calm - N/A   Partly Cloudy
10:50 AM 33.8 °F - 24.8 °F 70% 29.99 in 10.0 mi Calm Calm - N/A   Partly Cloudy
11:50 AM 50.0 °F - 23.0 °F 35% 29.96 in 10.0 mi Variable 4.6 mph - N/A   Partly Cloudy
12:50 PM 53.6 °F - 26.6 °F 35% 29.94 in 10.0 mi Variable 5.8 mph - N/A   Scattered Clouds
1:50 PM 55.4 °F - 24.8 °F 31% 29.92 in 10.0 mi Variable 6.9 mph - N/A   Scattered Clouds
2:50 PM 57.2 °F - 24.8 °F 29% 29.91 in 10.0 mi NW 6.9 mph - N/A   Scattered Clouds
3:50 PM 55.4 °F - 24.8 °F 31% 29.91 in 10.0 mi NNW 13.8 mph - N/A   Partly Cloudy
4:50 PM 51.8 °F - 24.8 °F 35% 29.94 in 10.0 mi NNW 6.9 mph - N/A   Partly Cloudy
9:15 PM 41.0 °F 34.3 °F 23.0 °F 49% 29.98 in 10.0 mi NNW 11.5 mph - N/A   Clear
9:35 PM 39.2 °F 32.5 °F 23.0 °F 52% 29.98 in 10.0 mi NNW 10.4 mph - N/A   Clear
9:55 PM 41.0 °F 34.3 °F 23.0 °F 49% 29.98 in 10.0 mi NNW 11.5 mph - N/A   Clear
10:15 PM 39.2 °F 33.0 °F 23.0 °F 52% 29.98 in 10.0 mi NW 9.2 mph - N/A   Clear
10:35 PM 37.4 °F 31.4 °F 23.0 °F 56% 29.98 in 10.0 mi NW 8.1 mph - N/A   Clear
10:55 PM 37.4 °F 31.4 °F 21.2 °F 52% 29.98 in 10.0 mi NW 8.1 mph - N/A   Clear
11:15 PM 37.4 °F 30.8 °F 23.0 °F 56% 29.98 in 10.0 mi NNW 9.2 mph - N/A   Clear
11:35 PM 37.4 °F 30.3 °F 21.2 °F 52% 29.98 in 10.0 mi NW 10.4 mph - N/A   Clear
11:55 PM 35.6 °F 28.0 °F 21.2 °F 56% 29.99 in 10.0 mi NW 10.4 mph - N/A   Clear